Theta_e
319 323 325 326 326 327 333 333 334 337 331 322 320 323 319 320 323 321 320 319 320 320 320 319 318 318 318 317 317 316 316 318 320 334 332 320 319 319 322 323 327 333 335 337 338 340 340 340 339 339 338 337 337 336 337 338 339 340 341 341 341 340 340 340 339 339 340 340 341 341 341 342 341 339 338 337 337 337 338 338 337 335 334 334 332 330 326 327 334 338 338 339 339 340 340 340 340
322 324 327 327 326 328 336 338 342 337 329 320 317 321 317 321 324 321 322 320 322 320 320 321 318 317 315 315 315 315 315 316 317 326 323 315 318 319 323 324 325 328 330 333 334 335 334 334 334 334 336 337 337 336 336 337 338 338 339 340 340 339 339 339 339 339 340 340 340 341 341 341 341 341 340 339 339 339 339 339 339 338 336 336 336 336 333 331 334 337 337 338 339 339 339 339 339
324 325 327 326 328 330 337 342 341 333 326 320 316 322 319 319 321 322 323 319 321 319 319 320 318 316 314 316 315 316 317 316 316 321 321 315 316 318 322 323 324 325 325 327 328 329 328 329 329 329 330 332 334 335 336 336 337 337 338 340 339 338 338 338 338 339 338 338 339 341 340 339 339 341 341 341 339 339 340 339 339 338 337 338 337 338 338 336 336 337 337 336 337 338 339 340 339
322 326 325 327 337 338 347 351 343 333 322 321 319 323 323 320 321 321 321 318 319 319 318 318 317 314 316 317 315 317 317 316 315 317 320 315 315 318 319 319 320 322 323 324 325 327 329 329 328 328 328 328 329 331 332 334 336 337 338 339 338 336 337 337 337 337 337 337 338 339 340 339 338 339 340 341 339 338 338 339 339 338 337 338 338 338 339 340 339 339 339 338 337 335 335 338 339
319 323 323 328 339 337 343 342 339 334 322 325 321 320 324 321 321 319 318 317 316 319 318 317 316 313 316 315 315 318 315 315 314 314 317 313 313 315 316 316 317 319 320 322 323 325 326 327 327 328 328 328 328 328 329 331 333 335 337 338 338 337 336 336 335 336 336 336 337 338 339 339 339 337 339 340 340 339 338 339 338 337 336 336 338 338 338 340 340 340 340 340 339 336 334 336 338
320 323 325 325 328 330 339 329 323 326 320 327 323 318 323 319 319 319 317 316 316 317 316 317 316 315 315 313 314 315 313 314 313 313 314 311 310 311 312 312 314 315 315 317 318 319 320 321 322 323 324 325 327 327 328 329 330 332 334 335 337 338 337 336 336 336 335 335 336 337 338 338 339 338 339 339 339 340 340 340 338 337 335 334 336 335 335 338 340 340 340 340 339 340 339 339 340
321 323 329 330 327 332 344 329 319 321 317 322 323 320 321 318 318 319 317 317 317 315 314 315 315 315 315 313 313 311 311 312 311 311 310 309 308 308 308 309 310 310 311 313 313 314 314 315 316 317 319 321 323 325 326 327 328 329 330 332 334 335 336 337 337 337 336 336 336 336 335 335 337 338 339 339 338 339 340 340 339 338 337 336 334 332 333 334 337 339 339 339 338 338 339 339 341
322 322 331 341 337 338 341 328 323 325 318 316 321 322 320 317 318 319 318 318 317 314 312 312 313 314 313 312 313 310 309 309 309 308 308 308 308 307 306 306 307 307 308 309 310 311 311 312 312 313 314 316 319 321 323 324 325 326 327 328 330 331 333 335 336 336 336 336 335 335 336 335 335 336 336 336 336 337 336 337 338 338 337 337 334 332 332 332 334 336 337 338 339 337 336 336 338
321 321 329 339 336 336 333 323 319 321 318 316 318 320 321 317 317 319 317 317 315 313 312 312 313 315 311 310 311 309 308 308 307 307 307 307 306 306 305 305 305 306 307 307 308 308 309 309 308 310 312 314 315 317 319 321 322 323 324 325 326 327 329 330 332 333 334 335 335 335 335 336 335 334 333 332 331 333 334 335 336 335 335 335 335 334 334 334 333 334 335 337 340 339 336 334 335
325 324 328 337 334 332 324 319 319 317 317 317 316 316 318 317 317 318 316 315 313 312 312 312 312 313 311 310 310 308 306 306 306 305 305 304 305 305 305 304 304 305 306 306 306 306 307 307 305 307 311 313 313 314 315 316 318 319 320 322 322 323 325 326 328 329 331 333 334 335 335 335 335 333 332 330 329 332 334 335 334 334 334 335 335 333 334 336 336 334 334 335 339 340 338 335 335
331 331 336 339 332 325 318 319 318 316 317 318 317 316 316 317 318 316 315 314 313 313 311 312 312 310 310 310 310 307 304 304 304 304 303 303 304 305 305 304 304 304 304 304 303 303 305 305 303 304 308 310 310 310 311 312 314 315 316 317 319 320 321 323 325 327 328 329 330 332 333 334 334 334 333 331 331 332 332 332 334 336 337 337 335 334 333 335 336 335 334 334 337 339 339 337 335
330 334 347 343 327 320 318 322 317 318 322 319 316 316 316 317 319 315 314 314 313 315 311 312 313 311 311 310 309 305 302 302 302 302 302 303 304 304 304 304 304 304 303 303 302 302 303 303 302 301 303 304 305 306 307 310 311 312 312 314 315 316 318 320 321 323 325 327 327 329 331 332 333 333 333 333 332 333 332 330 329 332 335 336 335 334 333 333 334 333 334 333 335 336 337 336 334
331 331 345 332 325 323 320 323 318 322 324 319 316 315 316 316 317 314 315 315 313 316 312 310 312 312 312 309 308 304 302 300 300 301 302 302 303 304 304 304 304 304 303 302 301 302 302 302 302 301 302 302 302 302 303 305 306 306 306 307 311 313 315 317 318 320 321 324 325 327 328 330 331 332 333 333 333 333 333 332 328 325 326 332 334 334 334 333 332 332 333 334 334 334 334 335 332
328 333 339 322 326 326 320 321 319 324 319 317 317 315 317 315 315 314 317 317 312 312 309 307 309 312 310 308 308 305 301 299 300 300 301 302 302 303 303 303 303 303 303 301 300 301 302 302 301 301 301 302 302 301 301 301 301 301 300 301 304 306 309 312 314 316 317 319 322 324 326 327 328 330 331 332 333 333 333 333 331 326 323 326 330 332 333 334 333 332 332 333 334 333 332 332 331
322 339 344 328 331 325 318 320 323 328 317 316 317 314 316 312 314 315 316 318 310 306 307 306 306 312 312 309 307 303 300 299 299 300 301 301 301 302 301 301 302 302 302 301 299 299 301 301 301 300 300 301 301 301 300 300 299 299 299 299 299 300 302 304 307 310 313 316 317 320 322 324 326 327 328 329 330 332 333 332 332 331 329 327 328 330 331 333 333 331 331 331 332 333 331 330 330
327 346 347 332 329 321 317 319 323 325 315 316 315 314 315 309 310 311 310 311 307 303 305 305 304 307 307 305 304 300 299 298 299 299 300 300 300 300 300 300 300 301 301 300 299 298 299 300 300 300 299 300 300 300 299 299 298 298 298 297 298 298 298 299 300 303 307 312 315 316 317 319 321 323 325 326 327 328 330 332 333 332 332 331 329 330 330 331 332 331 330 329 329 329 330 329 329
339 352 346 335 328 318 317 319 320 319 314 317 315 315 316 308 307 307 305 305 304 301 301 301 300 301 301 302 301 298 298 298 298 299 299 299 299 299 299 299 299 300 300 299 298 298 298 298 299 300 299 299 300 299 298 298 297 297 297 296 296 296 297 297 298 299 301 306 310 312 314 316 318 319 320 322 324 325 326 329 331 332 333 332 331 331 331 330 331 332 331 330 329 327 328 328 328
346 345 331 328 326 317 317 318 317 318 315 315 315 316 316 310 308 308 306 303 302 301 300 299 299 299 299 299 298 297 297 297 298 298 297 297 297 297 297 298 298 299 298 298 298 297 297 297 298 299 299 299 300 299 298 297 297 296 296 296 296 296 296 296 297 298 299 301 302 304 308 313 317 318 319 320 321 322 323 325 327 330 332 332 329 330 332 332 331 332 332 331 330 328 327 327 327
337 337 326 329 331 317 315 317 314 316 315 315 314 313 314 312 309 309 310 306 303 303 301 299 299 298 298 297 297 296 296 296 297 297 296 296 296 296 296 297 297 298 298 298 297 297 297 297 297 298 298 298 298 298 297 297 296 296 296 296 296 296 296 296 297 298 299 299 298 300 304 308 313 316 318 319 320 322 323 323 324 327 330 331 330 329 331 332 331 330 332 332 331 329 328 329 328
327 328 324 333 335 317 313 317 315 316 316 315 314 312 313 311 309 309 309 306 304 304 302 302 301 299 298 297 296 296 295 295 295 295 296 295 295 295 296 296 297 297 297 297 297 297 297 296 296 297 297 297 297 297 297 297 296 296 296 296 296 295 296 295 296 298 298 298 298 300 302 302 304 307 310 314 318 320 322 323 324 326 328 330 330 331 332 332 331 331 332 332 332 331 331 331 330
321 321 321 328 326 316 314 315 315 316 315 317 315 313 312 309 309 307 306 308 307 304 303 304 302 299 298 298 295 295 295 294 294 294 294 295 295 295 295 296 296 296 296 297 297 296 296 296 295 296 296 296 296 296 296 296 296 296 296 296 296 296 296 295 296 296 297 297 298 301 301 299 298 299 301 307 314 317 319 321 323 325 327 329 330 331 332 332 332 331 332 332 332 332 332 332 331
316 319 322 324 318 313 314 314 316 315 315 317 315 313 312 310 309 304 307 314 310 304 303 302 299 298 297 297 295 294 294 293 293 293 293 294 294 295 295 295 295 296 296 296 296 296 296 295 294 295 295 295 295 296 296 296 296 296 296 296 296 296 296 296 296 296 296 297 298 299 299 298 298 298 299 302 305 308 312 315 316 317 320 325 327 329 331 331 332 332 332 332 332 332 333 333 332
316 319 320 320 316 313 314 314 316 316 317 316 312 312 312 311 309 303 305 310 306 302 300 299 297 296 296 295 294 295 294 293 293 293 293 294 294 295 295 295 294 295 295 295 295 296 295 294 294 295 295 295 295 295 296 296 296 296 296 296 296 296 296 295 296 296 296 297 297 298 298 298 298 298 299 299 298 300 304 306 307 306 309 316 321 325 328 330 331 332 332 332 331 332 334 332 332
316 320 321 317 314 313 314 314 316 318 317 313 310 312 314 314 310 304 303 302 300 299 297 296 296 295 295 294 294 294 294 293 293 293 293 294 293 294 294 294 294 294 294 294 294 294 294 293 293 294 294 294 295 295 295 296 296 296 295 296 296 295 295 295 295 296 296 296 297 297 297 297 298 298 298 298 298 299 300 300 301 303 309 313 314 316 322 327 329 330 332 333 332 333 334 332 331
316 320 320 317 316 315 314 313 317 318 314 313 314 314 313 311 308 304 301 298 297 297 295 295 294 294 294 295 295 293 293 293 293 293 293 293 293 293 293 293 293 293 293 293 293 293 292 292 293 294 294 294 295 295 295 295 295 295 295 295 295 295 295 295 295 295 296 296 296 296 296 297 297 298 298 298 298 299 299 297 299 306 310 309 308 309 313 320 326 328 330 332 333 333 334 333 331
316 318 319 315 316 316 314 314 316 316 312 313 317 316 311 306 307 305 300 297 297 295 295 294 294 294 294 295 294 293 292 293 293 293 293 293 293 292 292 292 292 292 292 292 292 292 292 292 293 293 293 294 294 295 295 294 295 295 295 295 295 295 295 295 295 295 295 295 296 296 296 297 297 298 297 297 298 298 298 298 300 304 305 306 307 308 308 311 318 324 328 331 333 333 334 333 332
314 316 316 314 314 313 314 314 314 314 311 313 316 316 309 304 308 309 301 297 296 295 295 295 295 295 294 295 294 293 292 293 293 293 293 292 292 292 291 291 291 291 291 291 291 292 292 292 292 293 293 294 294 294 294 294 294 294 294 295 295 295 295 294 294 294 295 295 295 295 296 296 297 297 297 297 297 298 297 298 300 301 302 306 309 307 304 303 307 313 321 328 331 332 333 333 332
313 313 313 315 315 314 314 312 312 313 310 314 317 313 307 305 310 310 302 297 296 295 295 295 295 296 295 295 295 293 292 292 293 292 292 292 292 291 291 291 291 291 291 291 292 292 292 292 292 292 293 293 293 294 294 294 294 294 294 294 294 295 294 294 294 294 294 294 294 295 295 295 296 296 297 297 297 297 297 298 300 300 303 308 308 304 301 299 300 304 312 320 326 330 333 333 333
312 312 312 316 318 317 314 311 311 312 311 312 314 311 308 308 310 305 299 297 295 295 296 295 295 296 295 295 296 294 292 292 292 292 292 291 290 290 290 290 291 291 291 291 292 292 292 292 292 292 292 293 293 293 293 293 293 293 293 293 293 294 294 294 294 294 294 294 294 294 295 295 295 296 296 297 296 296 297 298 299 300 302 305 305 303 300 298 299 300 305 313 320 327 331 331 331
312 311 312 318 320 320 315 311 311 310 311 311 311 314 313 311 308 301 297 296 295 296 296 295 296 295 295 295 296 295 292 292 292 291 291 290 290 290 290 291 291 291 291 291 292 292 292 292 292 292 292 292 292 293 293 292 292 292 292 292 293 293 293 294 293 293 293 293 294 294 294 294 295 295 295 296 296 296 297 297 299 300 301 302 302 302 300 300 300 300 303 309 315 322 328 329 329
312 309 317 322 317 324 321 312 312 310 311 311 310 314 314 312 308 300 297 296 295 296 295 294 295 295 295 296 296 296 294 292 292 291 290 290 290 291 291 291 291 291 291 291 291 291 292 292 292 292 291 292 292 292 292 292 292 292 292 292 292 293 293 293 293 293 293 293 293 293 294 294 294 294 295 295 295 296 296 297 298 300 300 300 301 301 301 301 301 302 303 306 311 316 323 328 328
318 311 324 328 315 324 324 310 312 311 310 310 310 315 314 313 308 300 297 296 296 297 295 294 295 295 295 295 295 296 295 292 292 290 289 290 290 291 291 291 291 291 291 291 291 291 291 291 291 291 291 291 291 291 291 291 291 291 291 291 292 292 292 292 292 292 292 293 293 293 293 294 294 294 294 294 295 296 296 297 298 299 300 300 301 301 301 301 302 302 303 305 308 310 316 324 326
329 316 320 328 317 316 315 309 312 312 310 310 310 314 315 313 306 299 297 296 296 296 295 295 295 295 294 294 294 296 295 292 291 290 289 290 290 290 290 290 291 290 290 291 291 291 291 291 291 291 290 291 291 291 290 290 290 290 290 291 291 292 292 292 292 292 292 293 293 293 293 294 294 294 294 294 295 295 296 297 298 298 299 300 301 301 301 302 301 301 303 304 306 308 310 316 323
329 323 318 321 317 310 310 310 311 310 311 312 310 311 312 310 305 299 298 296 295 296 295 294 294 294 294 294 295 296 295 294 292 289 289 289 290 290 290 290 290 290 290 290 291 291 291 291 290 290 290 290 290 290 290 290 290 290 290 290 291 291 291 291 291 292 292 292 293 293 293 293 293 293 294 294 294 295 296 296 297 298 298 300 301 301 301 301 301 301 303 305 306 306 306 308 316
318 319 316 315 313 309 309 310 309 310 311 311 311 311 311 310 305 300 297 295 295 296 294 294 294 294 294 294 295 296 296 295 292 289 289 289 289 289 289 289 290 290 290 290 291 291 290 290 290 290 290 289 289 289 289 289 289 289 289 290 290 290 290 290 291 291 291 291 292 292 292 293 293 293 293 294 294 295 296 296 297 297 298 300 301 301 301 301 301 301 303 305 305 305 304 305 308
312 313 314 312 312 309 307 307 309 310 310 311 310 310 310 311 309 302 297 295 295 295 294 293 294 294 294 295 295 296 296 294 290 289 289 288 289 289 289 289 289 289 290 290 290 290 290 290 290 290 289 289 289 289 289 288 288 289 289 289 289 289 289 289 289 289 290 290 290 291 291 291 291 291 291 291 292 293 295 296 297 297 298 299 301 301 302 301 301 301 302 304 305 304 304 304 304
310 311 313 310 311 308 306 307 309 309 309 312 311 310 310 310 309 303 297 296 295 294 294 293 293 293 294 295 294 295 295 292 290 288 288 288 288 289 288 289 289 289 290 290 290 289 289 289 289 289 289 289 288 288 288 288 288 288 288 288 288 287 287 288 288 288 288 288 289 289 290 290 289 289 289 289 290 291 293 294 296 297 298 299 300 301 301 301 301 301 302 303 305 304 304 304 303
308 309 311 310 310 308 306 307 308 306 308 313 312 310 309 308 307 303 298 296 295 295 294 294 293 293 294 294 294 294 293 292 290 289 288 288 288 288 288 288 288 289 289 289 289 289 289 289 289 289 289 288 288 287 287 287 287 287 287 287 286 286 286 287 286 286 287 287 288 288 288 288 288 288 288 288 289 289 290 292 294 296 297 298 299 300 301 301 301 300 301 303 304 304 304 303 303
308 309 310 311 310 310 310 309 308 308 307 312 313 309 308 308 306 303 299 297 296 295 295 294 293 293 294 293 293 292 292 292 292 290 288 288 288 288 288 288 288 288 288 289 289 289 289 289 289 288 288 288 288 287 287 287 287 286 286 286 286 286 285 285 285 285 286 286 286 286 286 286 287 287 288 288 288 288 288 289 292 295 297 298 299 300 301 301 301 300 301 302 303 303 303 303 302
310 309 309 312 311 311 312 311 311 310 307 310 310 307 306 306 306 304 299 297 297 296 296 295 294 294 294 293 292 291 292 293 292 291 289 288 287 288 287 287 288 288 288 289 288 289 289 289 289 288 288 288 287 287 286 286 286 286 286 285 285 285 285 285 285 285 285 285 284 285 285 285 286 286 286 286 287 287 287 287 289 292 296 297 298 299 300 301 300 300 300 301 302 303 303 303 302
319 316 310 311 311 310 311 310 310 309 310 311 307 306 308 306 306 305 299 296 297 296 295 295 294 294 294 293 292 292 293 293 293 292 289 287 287 287 287 287 287 288 288 288 288 288 288 288 288 288 288 287 287 287 286 286 286 286 285 285 285 284 284 284 284 284 284 283 283 283 283 283 284 284 284 284 285 286 286 286 287 290 294 297 298 299 300 300 300 299 299 300 301 303 303 303 302
323 321 313 312 311 311 311 311 310 309 313 312 305 308 314 309 307 306 300 296 296 295 294 294 294 293 294 293 292 293 294 294 293 290 288 286 286 286 287 287 287 287 287 288 288 288 288 288 288 288 288 287 287 287 286 286 285 285 284 284 284 283 284 284 283 283 283 282 282 282 282 282 282 282 282 283 285 285 286 287 287 290 293 295 297 298 299 299 299 298 299 300 300 302 303 303 303
317 316 315 314 310 310 310 309 309 311 313 308 304 308 310 308 309 309 303 298 297 295 294 294 293 293 293 292 291 293 293 292 291 290 287 286 286 286 286 287 287 287 287 287 287 288 288 288 288 288 287 287 286 286 286 286 285 284 284 283 283 283 283 283 283 282 282 282 281 281 281 281 281 281 282 284 285 286 287 287 288 290 293 294 295 296 297 297 297 297 298 299 300 302 303 304 304
318 313 313 313 309 309 309 306 308 310 309 305 304 306 305 305 307 306 302 300 298 295 294 293 293 293 292 291 291 292 292 291 291 290 288 286 285 285 286 286 286 286 287 287 287 287 287 287 287 287 287 286 286 286 286 285 285 284 284 283 283 283 282 282 282 282 281 281 281 281 280 281 281 281 283 284 284 284 285 286 289 291 293 294 295 296 296 296 297 298 299 298 300 302 304 303 303
318 312 308 306 305 306 306 305 307 307 304 305 306 305 306 308 307 302 298 300 300 296 295 294 293 292 291 291 291 291 291 291 291 290 288 286 285 285 286 286 286 286 286 287 287 287 287 287 287 287 286 286 286 286 285 285 284 284 283 283 282 282 282 281 281 281 281 280 280 280 280 280 280 281 282 282 282 282 283 284 286 288 290 292 294 295 296 297 297 298 298 299 301 302 302 302 302
311 309 307 307 308 306 305 304 306 307 305 307 307 305 307 312 312 304 299 300 301 299 296 295 293 292 291 290 291 291 290 290 290 289 286 285 285 285 285 286 286 286 286 286 286 286 287 287 286 286 286 285 285 285 285 284 284 283 283 282 282 282 281 281 281 280 280 280 279 279 279 279 280 280 280 280 281 282 282 282 283 285 286 288 290 293 295 297 298 297 297 298 299 300 300 300 301
308 311 311 314 313 309 309 308 306 308 310 311 309 307 307 311 312 306 304 305 304 301 299 296 294 293 290 290 290 289 289 289 290 288 285 284 285 285 285 285 285 285 286 286 286 286 286 286 285 285 286 285 285 285 284 284 283 283 282 282 281 281 281 280 280 280 279 279 279 279 279 279 279 279 279 280 280 281 281 282 282 284 285 286 288 290 292 295 297 297 297 297 296 296 298 299 300
312 315 314 314 315 315 315 314 310 311 317 315 307 304 305 308 310 306 304 304 302 302 301 297 295 293 290 289 289 289 289 289 289 290 288 285 284 285 285 285 284 285 285 285 285 285 285 285 284 285 285 285 285 285 284 284 283 282 282 281 281 280 280 280 279 279 279 279 279 278 278 278 278 278 279 279 280 281 281 281 282 283 284 285 286 288 289 291 294 296 296 295 294 295 297 299 299
314 314 314 315 318 321 319 317 315 315 319 313 302 302 304 305 308 306 304 302 300 301 300 297 296 292 290 289 288 289 289 289 289 290 290 287 284 284 284 284 284 284 284 284 284 284 284 285 284 284 285 285 285 284 284 283 282 282 281 281 280 280 279 279 279 279 278 279 278 278 278 278 278 278 278 279 279 280 280 280 281 282 284 285 286 286 286 288 291 295 296 294 294 296 297 298 299
309 311 316 318 319 321 320 319 320 320 320 309 298 300 305 305 306 303 302 300 297 299 298 296 295 292 290 288 288 289 289 289 290 289 290 289 284 283 283 283 283 283 284 284 284 284 284 284 284 284 284 285 284 284 283 282 282 281 281 280 280 279 279 278 278 278 278 278 278 278 278 278 278 277 277 278 278 280 280 280 280 281 283 285 285 285 285 286 289 293 295 296 295 296 297 298 298
308 311 314 317 318 320 320 320 321 319 318 310 300 302 309 310 305 298 294 293 293 295 295 293 292 290 289 288 288 289 288 288 289 289 289 287 283 283 283 283 283 283 283 283 283 283 283 283 283 283 284 284 284 283 282 282 281 281 280 280 279 279 278 278 278 278 278 278 277 277 277 277 277 277 277 277 277 278 279 279 279 279 281 284 284 284 285 286 288 292 294 296 297 296 297 298 298
308 308 309 312 315 317 317 315 315 313 310 307 303 306 309 307 300 293 291 291 290 291 290 290 290 289 288 288 287 288 288 288 288 288 288 285 283 283 283 283 283 283 282 283 283 283 283 283 283 283 283 283 283 282 282 281 281 280 279 279 279 278 278 278 277 277 277 277 277 277 277 277 277 277 277 276 276 277 278 278 278 278 280 282 283 284 286 286 287 290 293 295 297 297 297 297 297
308 305 308 310 310 310 310 310 309 308 308 309 307 308 308 307 301 294 291 291 289 289 289 289 289 288 288 287 287 288 288 288 288 288 288 285 283 283 283 283 283 282 282 282 283 283 282 282 282 282 282 282 282 282 281 280 280 279 279 278 278 278 277 277 277 277 277 276 276 276 276 277 276 276 276 276 276 276 277 277 277 278 280 280 282 284 285 285 285 288 291 294 297 296 296 297 297
308 309 310 308 306 305 306 309 309 308 309 311 309 308 309 311 307 296 291 292 290 289 289 289 288 288 288 287 287 288 288 288 288 287 286 284 282 283 283 283 282 282 282 282 282 282 282 282 282 281 282 281 281 281 280 279 279 278 278 278 277 277 277 277 277 276 276 276 276 276 276 276 276 276 276 276 276 276 276 277 277 279 279 279 281 283 284 283 284 286 288 291 295 296 295 296 297
306 308 306 308 310 309 307 308 310 311 312 314 312 309 309 309 308 302 297 294 291 289 288 289 289 287 287 287 287 287 288 288 287 287 287 284 282 282 283 282 283 282 282 282 282 281 281 281 281 281 281 281 280 280 279 278 278 277 277 277 277 277 276 276 276 276 276 276 276 276 276 276 276 276 276 275 275 275 276 276 277 278 278 279 281 282 282 282 282 283 285 288 292 295 295 295 296
299 301 301 304 307 309 309 307 309 313 314 315 315 314 313 309 306 308 303 296 292 290 288 289 289 287 287 287 287 287 287 287 287 287 287 285 282 282 283 282 282 282 281 281 281 281 281 280 280 280 280 280 279 278 278 277 277 276 276 276 276 276 276 276 276 276 276 276 276 276 276 276 275 275 275 275 275 275 275 276 276 276 277 279 280 280 280 281 281 282 284 286 289 293 294 295 296
300 300 301 301 302 305 307 304 305 310 312 314 314 315 316 309 303 306 304 297 293 291 290 290 289 287 287 287 286 287 287 287 287 286 287 285 282 282 283 282 282 281 281 281 280 280 280 279 279 279 279 278 278 277 277 276 276 276 275 275 276 276 276 276 276 276 276 275 275 276 275 275 275 275 274 274 274 274 275 275 275 276 277 278 278 278 279 280 280 281 283 284 287 290 293 295 295
304 303 304 303 303 306 307 306 306 306 308 312 313 313 315 307 301 303 302 298 294 291 291 291 288 287 287 286 287 287 286 287 286 286 287 285 282 282 282 281 281 280 280 280 279 279 279 278 278 278 277 277 277 276 276 276 275 275 275 275 275 275 275 275 275 275 275 275 275 275 275 275 274 274 274 274 274 274 274 274 275 275 276 276 276 276 278 279 280 281 282 283 285 288 292 294 295
Wind_Speed
5 3 3 2 2 4 3 3 3 3 3 3 1 2 1 2 2 3 1 0 1 3 3 1 3 4 7 9 10 10 7 4 1 3 3 6 11 19 25 26 25 24 22 19 18 17 17 16 15 14 12 11 10 10 10 9 8 9 9 10 11 11 12 12 13 13 13 13 12 13 12 11 11 11 10 10 9 9 9 10 11 11 11 11 10 9 9 11 12 13 13 14 15 15 15 16 17
5 3 2 2 2 2 0 3 4 3 5 3 2 2 1 3 3 4 4 3 4 3 2 3 6 9 11 12 8 11 11 7 4 3 3 10 12 18 26 26 26 25 23 21 20 19 19 18 17 16 13 12 10 11 11 9 8 9 9 9 11 11 12 13 13 14 14 14 13 13 14 14 13 13 12 11 10 10 10 11 12 13 13 13 13 12 11 11 12 13 13 14 15 16 16 17 18
5 3 2 1 2 3 1 4 4 2 5 3 3 2 1 1 3 6 7 6 7 4 3 4 8 6 6 8 6 8 4 4 8 2 3 16 11 15 24 23 26 26 24 24 22 21 21 21 19 17 16 14 12 10 10 10 10 9 10 9 10 10 11 13 14 15 15 15 14 14 15 15 15 15 14 13 12 12 13 13 13 14 14 14 14 14 13 13 13 14 14 14 15 16 17 18 19
3 1 1 1 2 3 3 4 3 5 4 3 2 4 2 4 7 6 7 5 5 3 4 5 6 4 6 9 5 5 2 1 9 6 3 17 14 15 23 24 27 26 26 26 24 24 23 23 21 20 20 18 17 13 10 9 10 10 11 10 10 11 13 14 14 15 16 16 15 15 15 15 16 16 15 15 14 14 15 15 15 15 15 16 16 15 15 15 15 15 15 14 15 16 17 18 20
3 0 1 2 3 1 3 3 2 5 3 5 2 4 5 6 7 6 5 5 4 3 5 4 5 1 7 7 3 3 4 3 8 13 6 16 21 21 24 24 26 28 29 28 26 26 24 23 22 22 21 20 20 18 16 13 11 11 11 11 11 12 14 15 16 16 16 17 17 16 15 16 16 15 15 16 15 15 16 16 17 17 16 17 17 17 17 17 17 17 17 16 15 16 17 19 21
4 3 2 2 2 1 3 3 3 2 3 6 3 5 6 6 6 6 2 3 2 6 6 6 6 5 6 4 5 5 6 3 7 13 9 16 25 24 24 25 27 29 29 28 28 27 26 24 24 23 22 22 20 20 19 18 16 14 12 11 12 13 14 16 17 17 18 17 17 17 16 16 17 16 16 16 16 16 17 18 18 18 18 19 18 18 18 18 19 19 19 18 18 18 19 21 23
3 2 2 4 2 2 5 4 4 2 1 5 5 5 6 6 6 6 3 1 2 7 8 6 8 9 5 2 5 9 15 13 7 11 15 20 25 26 27 27 29 31 29 29 28 28 28 26 26 25 24 24 22 22 21 21 20 19 17 15 14 14 14 16 17 18 19 19 18 18 18 17 17 18 18 18 18 17 18 19 19 19 19 20 20 20 20 20 19 20 21 21 20 20 21 22 24
1 1 1 4 2 3 5 3 3 4 1 1 3 5 6 5 6 5 3 1 2 4 7 6 9 11 4 3 6 9 18 16 12 17 21 23 25 26 28 28 30 31 30 29 29 28 28 28 28 27 26 25 24 24 23 22 22 22 22 20 19 17 16 16 17 17 18 20 20 21 20 19 18 19 19 20 21 20 19 20 20 20 21 22 22 21 22 22 21 20 21 21 20 21 22 22 24
2 2 1 4 3 3 4 2 1 3 1 2 3 4 4 4 5 4 3 2 4 5 5 4 6 9 4 7 7 6 13 14 16 22 23 24 25 26 28 29 29 29 29 29 29 28 29 29 30 29 29 28 27 26 25 24 23 23 22 22 22 21 20 19 19 18 18 19 21 22 22 22 21 21 21 20 21 21 21 22 22 22 23 23 24 23 24 24 23 22 22 21 20 20 22 22 22
3 3 2 3 3 4 3 1 1 2 2 3 3 4 2 2 4 5 5 4 5 7 5 4 8 9 8 6 5 4 9 11 17 21 23 24 24 26 28 29 29 28 28 28 28 29 29 29 31 31 30 29 29 28 27 27 26 25 23 23 23 22 22 21 21 21 20 20 20 22 23 23 23 23 24 22 21 21 22 23 23 24 25 25 24 24 26 26 24 24 24 23 21 20 21 21 22
3 4 3 4 4 3 2 3 2 2 4 3 4 5 2 2 5 5 4 4 5 7 4 6 8 8 7 5 2 5 10 13 16 17 20 22 24 26 27 28 28 28 28 27 28 29 29 29 30 31 31 30 29 28 28 28 27 27 26 25 24 23 23 22 21 21 21 20 21 22 22 23 24 25 25 25 24 23 23 23 23 24 26 26 25 24 26 27 26 25 25 25 23 22 22 21 22
3 4 4 4 3 2 3 5 4 3 5 4 2 5 1 4 6 3 5 5 4 5 3 4 5 7 6 4 0 5 12 15 13 16 19 21 23 25 26 26 26 26 27 26 27 28 29 29 30 30 30 30 29 29 29 28 28 28 27 27 26 25 25 25 24 22 21 21 21 21 21 22 24 25 25 27 28 27 25 24 23 24 26 27 27 26 26 27 27 27 28 28 26 25 23 22 22
4 1 5 3 3 3 3 5 3 1 4 2 2 3 2 5 4 4 6 6 7 6 4 6 5 7 5 3 1 3 10 13 13 17 19 20 21 22 24 24 25 25 26 26 27 28 28 29 29 30 29 30 30 30 29 29 29 29 28 28 27 26 26 26 26 25 24 23 22 22 22 22 23 24 25 27 28 29 28 26 24 25 26 28 29 29 28 28 28 28 29 28 28 28 26 24 24
3 3 5 2 0 3 4 3 1 2 2 2 2 4 1 4 3 5 8 8 8 3 2 6 3 6 5 3 2 2 5 10 15 17 17 19 19 20 22 23 24 24 25 27 28 28 27 28 30 31 31 31 31 31 31 31 31 30 30 30 29 28 27 27 26 26 26 25 24 23 23 23 23 23 24 27 28 29 30 29 28 28 28 28 29 30 30 29 28 29 29 28 28 29 28 27 25
3 2 4 3 3 2 2 2 2 4 2 2 2 2 4 5 2 5 6 7 4 4 1 8 6 3 4 4 2 2 2 9 15 16 16 18 19 21 22 22 24 25 26 26 27 28 28 29 30 32 33 32 32 32 33 33 33 32 33 32 31 30 29 28 27 27 26 26 26 26 25 25 24 24 24 25 27 28 29 31 32 32 30 30 31 31 31 30 30 30 30 29 28 29 29 28 27
3 3 5 4 2 2 1 2 2 3 1 3 4 2 6 7 4 5 4 3 4 6 3 6 6 4 4 5 6 4 4 11 16 16 18 20 21 22 23 24 24 25 26 26 28 28 28 29 29 31 32 32 32 32 33 34 34 34 35 34 33 32 32 31 30 29 28 27 28 29 29 28 27 27 26 26 27 27 29 33 35 35 32 32 33 33 33 32 31 31 32 31 31 31 31 30 28
3 4 5 3 1 2 1 2 3 3 2 4 5 3 6 5 4 5 6 9 9 7 9 6 6 7 6 7 9 7 8 14 17 18 22 24 24 25 27 27 26 26 26 27 27 27 28 28 28 29 29 29 29 30 31 32 34 35 35 35 35 34 33 33 32 32 30 29 29 30 30 31 31 30 30 28 29 29 30 32 35 37 35 35 34 34 34 34 33 33 33 32 32 33 33 31 29
5 3 4 2 1 2 3 5 5 4 3 3 4 1 7 7 3 5 6 11 9 9 9 7 9 8 7 10 10 9 14 19 21 23 25 25 25 25 26 27 27 26 25 25 26 25 27 27 26 26 27 27 26 28 29 31 33 35 35 36 36 36 35 33 33 33 33 33 32 32 31 32 33 33 32 31 30 30 30 31 34 36 36 35 35 35 35 35 34 34 35 34 34 34 34 33 31
4 3 4 1 4 1 2 5 5 4 5 4 4 1 4 4 5 4 4 3 4 9 6 4 8 7 6 8 9 13 20 23 23 23 22 20 20 19 19 21 24 23 23 23 23 23 23 24 24 24 24 25 26 27 29 31 33 33 33 34 35 37 37 35 33 32 34 35 36 34 33 32 32 33 32 31 31 31 31 31 32 34 35 34 35 36 36 36 36 35 36 36 36 36 35 33 31
2 4 3 4 6 1 3 3 5 5 7 6 3 1 3 2 2 4 7 5 2 6 5 2 5 4 4 4 9 16 20 21 20 20 18 15 14 14 14 16 18 20 19 18 19 20 21 22 22 22 22 23 25 28 30 32 33 32 32 33 34 35 36 36 34 33 34 36 36 34 33 33 33 33 32 32 32 32 32 32 33 33 35 34 34 38 39 38 36 35 35 36 38 38 36 35 32
2 3 2 6 4 2 2 4 5 4 5 7 4 2 4 2 3 5 11 8 1 5 7 6 9 9 7 4 8 14 16 17 17 17 15 12 11 11 12 13 14 16 16 16 18 18 19 21 22 21 21 22 26 29 31 32 33 33 33 33 34 34 35 35 34 34 34 34 35 35 34 35 35 34 33 32 33 33 32 32 32 33 34 35 34 35 38 38 36 35 36 38 40 40 39 37 34
1 2 5 5 3 2 3 5 4 3 4 5 4 3 2 2 4 3 8 6 4 6 5 8 10 10 9 7 8 11 12 13 13 14 13 11 9 9 11 12 13 14 15 17 17 17 18 20 22 21 21 24 28 30 31 32 33 34 34 34 34 34 34 34 34 35 34 33 33 34 36 37 37 36 34 33 34 34 33 33 33 33 33 33 34 34 36 36 37 38 38 40 41 42 41 40 37
0 5 3 3 3 2 3 4 3 4 6 4 3 2 3 5 4 1 3 4 5 4 6 8 9 11 12 11 10 9 9 9 10 11 11 10 8 7 8 10 13 14 15 17 17 16 17 21 22 21 23 26 29 30 31 32 33 33 33 34 35 34 34 33 33 34 34 33 32 33 36 37 37 36 35 35 36 36 36 35 35 36 35 34 33 34 35 36 37 38 39 41 42 43 43 41 40
2 3 4 2 3 3 4 5 4 5 8 3 3 4 3 6 4 2 4 3 4 6 7 9 11 13 13 11 8 8 8 9 9 8 8 8 7 6 5 7 11 12 13 16 17 16 18 21 21 21 24 27 29 30 32 33 33 34 34 34 35 34 34 34 34 33 32 32 32 33 34 36 36 35 36 37 36 36 37 38 38 37 36 35 35 35 35 35 36 37 38 41 42 43 43 42 42
2 4 4 2 2 2 3 5 5 6 7 3 5 3 2 5 5 5 5 4 6 7 7 9 11 10 10 9 8 8 8 9 8 6 5 4 5 7 7 7 10 12 13 16 17 17 19 20 21 23 26 28 29 31 32 33 34 35 35 36 36 35 35 35 35 33 33 32 32 33 34 34 35 35 36 37 37 36 38 40 40 37 35 36 37 37 36 36 36 36 37 40 42 42 43 43 42
2 3 3 3 5 5 2 2 4 5 4 3 6 4 2 2 3 3 5 6 6 7 7 7 8 8 7 7 7 8 8 8 8 5 4 3 5 9 11 10 11 14 15 17 19 19 20 21 22 24 27 29 30 30 31 33 34 35 36 36 36 36 37 37 36 34 34 33 33 34 34 34 34 35 36 36 37 37 38 39 39 38 38 38 37 37 37 37 37 36 37 40 42 42 43 44 43
3 2 3 4 5 6 3 2 2 3 1 3 5 1 1 2 2 0 6 6 6 6 7 5 7 8 7 6 6 8 8 8 7 5 4 6 6 10 13 13 14 16 17 20 20 20 21 22 24 26 28 29 29 30 31 33 35 35 35 35 35 35 36 37 37 37 36 35 35 35 35 34 34 35 36 36 36 37 38 38 37 39 40 37 35 36 37 38 39 39 38 39 40 41 44 45 44
2 3 5 7 6 6 2 2 2 3 1 3 8 3 0 0 3 4 7 7 6 7 7 5 7 7 6 6 5 6 7 8 7 4 3 6 7 9 12 14 15 17 19 20 20 20 22 23 25 26 28 29 29 29 30 32 34 34 34 34 33 33 33 34 35 37 37 37 37 36 36 36 36 36 36 36 37 38 38 36 36 37 37 36 36 37 38 40 40 40 40 39 39 44 47 45 45
1 3 4 8 8 7 3 1 3 4 3 4 8 4 1 4 5 2 6 8 6 6 7 5 6 6 5 6 4 5 6 7 6 2 2 4 7 8 11 13 14 16 18 18 18 19 21 23 24 26 28 29 30 28 29 32 33 34 34 34 34 35 34 34 35 36 37 37 37 37 37 37 36 37 37 37 38 39 38 36 35 35 34 36 39 39 40 41 41 41 41 39 39 41 45 44 43
1 3 2 4 7 6 4 2 1 3 3 4 6 1 5 9 7 3 7 8 7 6 6 5 6 5 5 5 4 4 4 6 4 3 3 5 8 9 11 13 13 15 16 17 17 19 20 21 23 25 28 30 30 29 30 33 35 36 37 37 37 37 37 37 38 38 38 38 38 38 37 37 37 37 37 38 39 39 38 37 36 34 35 37 38 39 40 40 40 41 41 38 37 38 42 44 41
0 1 2 3 3 5 6 1 2 2 1 3 5 4 6 8 7 5 7 7 8 8 6 6 6 5 5 5 5 4 5 7 5 3 4 7 10 10 12 12 13 14 15 16 17 18 19 21 23 25 28 30 30 31 33 35 36 37 38 38 37 37 37 38 39 40 41 40 40 39 38 38 38 38 38 39 40 39 38 37 37 36 36 37 38 38 38 38 38 38 38 37 35 37 38 42 40
3 1 3 4 1 5 9 2 5 5 3 2 5 4 6 7 6 7 7 6 8 8 7 7 6 6 6 5 5 4 5 6 5 3 4 8 10 10 10 11 12 12 13 15 16 18 20 21 24 27 30 32 32 33 34 35 36 37 38 37 36 35 35 36 38 39 41 41 40 39 39 38 39 39 39 39 40 40 39 38 37 37 37 37 37 37 36 36 36 37 38 36 34 35 36 35 39
4 2 3 4 3 4 7 4 3 5 3 1 3 5 5 5 5 7 7 7 7 8 8 8 7 7 6 5 5 5 5 4 4 3 3 7 8 9 9 10 11 11 12 15 17 19 21 22 26 29 32 33 33 32 33 34 35 36 37 36 34 34 35 36 37 38 38 39 39 39 39 39 39 39 39 39 40 40 40 39 38 38 38 37 37 37 36 34 34 36 37 35 32 31 35 36 36
4 3 2 5 4 3 4 6 4 2 3 4 3 5 7 5 4 8 8 8 8 8 10 9 8 6 6 6 5 5 5 4 4 4 3 5 7 8 8 9 10 12 13 16 18 19 21 24 28 31 32 33 32 32 32 33 34 35 34 33 32 33 33 35 37 37 37 37 37 38 38 39 40 40 40 39 40 40 40 40 39 38 37 37 36 36 35 35 33 33 35 36 33 31 32 36 36
3 4 3 4 4 4 5 5 4 1 2 6 4 6 11 8 4 8 8 9 9 9 9 8 8 7 6 6 6 6 5 5 7 6 4 3 7 7 8 10 11 13 15 17 19 19 21 25 28 30 31 32 32 32 32 33 33 33 32 32 31 31 33 34 35 36 36 36 36 37 38 39 39 39 39 39 39 40 40 40 40 39 37 36 35 35 34 34 34 32 32 34 35 34 32 33 37
6 5 4 4 5 7 7 6 5 2 3 8 8 9 11 8 6 8 8 9 9 8 7 7 7 7 7 6 6 6 5 6 9 7 3 3 7 8 9 10 12 14 16 17 18 19 22 26 28 29 30 31 32 32 33 33 32 31 31 31 31 31 33 34 33 34 35 35 36 37 38 38 39 40 41 41 40 40 41 41 40 39 37 35 35 34 33 33 33 33 32 32 33 35 35 33 34
5 3 4 5 5 7 8 5 6 2 3 8 9 9 10 9 8 10 9 8 8 8 9 9 8 8 7 7 7 7 6 6 9 8 2 4 6 8 10 11 13 15 16 16 17 19 23 25 27 28 29 31 31 31 31 31 29 29 29 29 30 31 32 33 33 33 35 36 36 36 37 38 40 42 42 41 40 40 41 41 40 39 37 36 35 35 34 32 31 32 32 30 29 30 33 33 31
3 3 3 5 5 8 9 5 4 0 2 7 5 5 10 10 9 8 9 10 12 14 14 13 12 10 8 8 8 7 6 4 7 8 1 5 6 9 12 13 14 14 13 15 17 19 22 24 25 26 27 28 29 29 29 28 27 27 28 29 30 31 30 31 32 33 34 34 34 35 37 39 41 41 41 41 41 40 39 40 40 40 38 36 36 36 35 32 30 29 29 29 28 26 28 31 30
2 2 1 5 4 4 8 5 3 2 1 5 6 5 8 10 11 9 12 14 14 15 15 13 14 12 9 8 8 8 6 5 6 6 1 4 7 9 13 12 11 10 11 14 17 19 20 22 22 23 24 26 27 28 27 27 28 29 29 29 29 30 30 30 31 32 32 34 36 37 38 39 40 41 41 40 41 41 40 40 40 40 39 37 35 35 34 32 29 28 27 27 27 25 25 29 29
3 3 2 5 4 2 5 5 5 4 3 6 8 8 7 9 12 9 10 11 8 9 10 9 10 11 10 10 8 8 8 7 6 5 2 3 6 8 10 9 8 9 10 14 16 17 18 19 20 21 23 25 26 27 27 28 30 32 31 30 30 30 31 33 34 33 33 35 37 38 38 38 40 42 43 42 42 43 43 42 41 40 39 37 34 34 34 33 30 27 26 26 26 25 24 25 28
4 5 5 6 7 6 7 4 5 6 4 4 7 8 6 7 13 10 2 3 5 6 8 8 9 9 8 8 8 8 8 7 6 5 2 2 4 6 7 7 7 9 11 14 15 16 16 17 19 21 22 24 25 27 28 29 31 33 34 34 33 32 31 32 33 36 38 39 39 39 40 41 41 42 43 43 43 44 45 44 41 39 39 37 35 33 34 34 31 28 26 26 27 26 24 25 27
5 5 9 10 9 8 7 5 5 5 5 4 5 5 6 2 7 9 1 3 8 6 9 12 10 8 7 8 8 8 7 5 5 4 3 1 2 4 6 6 7 9 11 13 14 14 15 16 18 20 22 23 25 26 28 30 30 31 31 31 30 30 29 28 28 33 38 42 44 45 46 46 43 42 42 41 40 41 43 43 40 38 38 38 36 34 34 33 32 31 28 27 28 29 27 24 25
3 4 6 7 6 6 6 4 3 2 4 3 3 2 8 3 5 9 5 8 10 7 10 13 10 9 9 8 7 7 6 5 4 3 4 2 1 4 6 6 7 10 12 12 14 15 16 17 19 21 22 22 24 26 28 29 29 28 27 25 25 25 27 31 33 35 37 40 43 46 48 48 45 43 42 38 35 37 40 41 38 37 37 38 37 35 35 34 34 34 30 28 30 30 27 22 22
3 4 4 4 4 4 4 1 2 4 2 6 2 4 7 7 7 6 6 9 10 9 12 11 10 11 10 8 8 7 7 6 5 5 5 2 1 3 5 6 7 10 12 12 15 17 17 18 20 22 23 23 24 26 27 27 27 27 26 24 24 24 25 31 37 38 39 39 41 45 46 47 45 41 37 35 35 37 40 39 35 33 34 35 35 35 36 35 35 34 31 30 31 28 25 23 23
5 5 4 3 3 4 2 2 5 3 3 8 6 7 4 9 5 2 2 7 10 12 16 14 13 13 10 9 8 7 6 6 6 5 5 3 1 2 4 6 9 10 11 13 16 17 17 19 21 23 23 23 24 25 26 26 26 26 25 24 25 26 27 30 34 36 38 39 41 44 44 44 44 39 36 36 38 38 39 39 36 34 34 33 32 33 36 37 35 33 32 31 29 26 24 25 26
3 4 2 2 1 2 1 1 3 2 1 10 8 7 4 8 3 2 1 5 11 14 14 13 14 12 10 9 8 7 6 5 5 5 5 4 2 3 5 8 10 11 11 15 17 17 18 19 20 22 22 22 23 24 25 25 26 25 24 24 26 29 30 31 32 34 36 38 40 42 42 42 42 41 40 39 37 35 36 39 38 36 36 35 33 32 33 35 36 35 33 30 27 25 25 27 28
3 5 4 4 3 2 2 1 2 3 4 11 8 11 8 7 3 5 5 6 9 11 9 9 13 13 11 10 8 7 6 5 5 4 4 3 1 4 7 9 11 11 13 16 17 17 18 19 20 21 23 22 23 24 25 26 26 24 24 24 26 28 30 30 32 33 35 37 39 42 42 42 41 40 41 39 36 34 33 35 36 35 36 35 33 32 32 33 35 37 34 28 26 26 26 28 29
5 5 4 4 5 4 4 4 3 1 6 7 4 8 9 8 6 5 8 8 6 8 8 13 17 16 12 9 7 7 6 6 5 4 4 2 3 6 9 10 11 12 15 17 17 17 19 20 20 22 24 24 24 25 26 26 25 24 23 24 25 27 27 28 30 33 35 36 37 41 41 41 40 37 37 36 33 30 29 30 33 33 33 33 32 32 33 33 34 35 32 26 24 26 26 28 29
5 4 4 3 5 4 3 4 0 3 7 4 2 2 5 10 10 8 12 12 8 7 9 13 16 15 13 10 7 6 5 5 5 4 3 2 2 5 8 10 12 13 16 18 17 17 20 22 22 22 25 25 25 26 26 26 25 24 24 24 25 26 26 27 29 32 34 34 34 36 36 36 37 35 32 32 31 29 28 28 31 33 32 33 32 32 35 36 34 33 32 28 25 25 26 28 29
4 3 3 1 1 3 5 5 3 5 7 2 3 2 4 8 8 8 11 10 8 7 8 9 11 14 13 10 7 6 5 5 4 4 3 3 3 4 7 10 12 15 18 18 17 18 21 23 23 23 25 26 26 26 26 26 26 25 24 24 25 26 27 28 29 31 33 34 34 34 35 35 35 34 32 32 32 32 30 28 29 32 32 32 32 33 35 35 34 33 34 32 27 25 26 28 30
4 4 4 3 3 3 5 4 5 9 7 3 1 2 4 4 2 4 6 6 5 3 3 4 7 10 9 7 6 6 6 5 4 4 4 4 4 5 8 11 13 16 18 18 18 20 22 24 23 23 25 27 27 27 27 27 27 26 25 25 26 27 28 29 30 31 31 35 36 36 36 35 34 36 36 35 33 33 32 29 29 32 32 31 30 32 33 33 33 32 33 33 28 24 24 26 28
2 3 4 2 5 5 4 4 5 4 6 5 3 3 6 5 2 1 2 2 4 4 4 8 8 8 7 6 7 6 5 5 4 4 4 4 5 7 9 12 14 16 17 17 18 22 23 24 24 24 26 27 28 28 28 28 28 27 27 27 28 28 28 30 31 31 33 35 37 36 37 37 35 36 37 35 33 32 31 30 30 32 32 29 30 32 32 31 32 30 30 34 30 23 23 25 25
2 2 3 4 3 5 2 5 1 2 4 7 3 6 7 2 2 1 4 2 2 3 3 7 7 7 7 6 6 5 5 5 5 4 4 4 6 9 11 12 14 15 15 16 20 23 24 24 24 24 26 27 28 29 29 30 29 30 30 29 29 28 29 31 31 33 35 36 36 36 36 37 36 36 37 35 32 31 31 30 31 31 29 29 31 31 29 29 31 30 28 33 31 24 22 24 24
5 3 5 3 3 3 2 2 3 0 5 6 3 9 11 4 3 3 2 2 4 4 5 5 6 7 7 7 6 6 6 5 4 4 4 5 7 10 12 12 13 14 14 17 21 23 22 22 22 23 26 27 28 29 29 30 30 31 31 31 31 30 30 31 32 34 35 36 37 36 36 37 37 36 37 35 32 31 31 30 29 28 27 29 31 30 29 29 31 30 29 32 33 27 23 23 24
4 4 3 3 2 1 1 2 3 3 6 7 4 7 11 8 5 2 4 9 10 8 7 7 9 10 8 7 7 6 5 4 3 4 4 5 8 11 11 11 13 12 15 18 21 22 22 22 21 22 25 27 28 29 30 30 30 30 31 32 32 32 32 32 32 34 35 36 36 36 36 37 37 37 36 34 33 32 31 29 28 28 28 28 29 28 29 30 30 30 30 31 32 29 25 23 23
3 1 2 1 3 4 2 2 2 3 6 9 6 6 9 7 6 7 11 14 13 11 10 11 12 11 9 8 7 6 5 5 4 5 5 6 9 10 9 10 12 13 16 18 19 20 21 21 21 22 25 27 28 29 30 32 32 32 33 34 33 32 32 33 33 34 35 36 35 35 37 37 37 36 35 34 33 32 31 30 29 29 28 27 25 25 27 28 30 31 31 31 32 30 27 24 23
2 2 2 2 2 1 2 2 2 3 6 7 6 9 12 4 5 7 10 11 13 14 14 14 11 10 9 8 8 6 6 6 5 5 6 6 6 8 9 10 11 13 16 17 18 19 20 20 21 22 24 27 28 29 29 31 32 33 34 35 35 34 33 34 35 35 36 36 36 36 36 37 36 36 35 34 33 32 31 30 29 28 28 27 25 26 27 27 29 31 31 32 32 31 28 24 22
6 6 7 7 5 2 3 5 3 3 6 5 3 11 14 3 4 5 6 8 11 14 15 12 9 11 10 8 8 7 7 7 6 6 5 4 5 7 8 9 11 13 15 16 17 18 19 20 21 22 24 25 27 29 30 31 32 33 34 35 35 35 35 36 36 37 37 36 36 36 36 35 36 35 33 33 33 32 31 30 29 28 27 27 27 29 29 26 25 28 30 32 32 31 29 25 23
Wind_Direction
39 79 79 74 351 358 19 72 61 6 77 88 40 78 286 266 115 90 80 359 69 269 239 197 13 72 105 120 126 106 61 41 358 86 129 312 4 19 26 35 37 47 51 52 43 37 33 28 27 22 14 1 345 328 307 286 288 287 285 278 273 271 271 268 266 266 263 261 261 262 261 259 257 258 256 250 249 255 261 267 275 285 292 293 294 291 287 282 275 269 267 265 263 262 259 259 260
42 79 63 48 4 35 127 83 85 12 55 69 331 128 231 328 61 137 166 167 190 229 202 134 67 71 108 130 122 79 47 12 4 106 97 4 23 30 29 35 39 47 50 52 49 45 39 35 31 23 17 6 353 339 322 304 296 286 289 285 276 274 278 278 274 272 271 271 265 262 260 258 257 256 258 256 254 255 256 262 269 276 284 288 290 289 288 285 278 273 268 264 261 259 257 257 258
40 84 74 40 34 66 67 44 95 80 74 110 274 247 306 25 151 185 197 183 200 192 124 86 69 51 84 88 52 68 61 5 19 23 50 18 11 15 25 36 41 49 50 49 47 44 39 34 31 27 24 16 8 349 332 322 314 302 296 288 281 279 285 284 281 280 279 281 275 267 262 258 257 253 253 254 257 260 258 258 262 267 274 276 279 279 277 278 275 272 269 266 260 255 253 254 257
19 39 28 82 49 36 59 51 118 113 116 165 228 265 273 189 185 207 228 228 229 160 110 69 65 5 56 70 39 70 53 309 21 14 36 17 17 25 34 41 44 50 50 49 48 47 44 38 35 31 28 23 21 12 358 338 323 313 305 297 292 291 293 289 288 287 284 284 281 275 267 264 263 258 255 253 257 263 264 262 262 262 267 269 270 272 270 270 270 268 265 264 262 256 251 250 252
7 336 199 116 79 41 88 70 96 98 167 180 151 252 245 207 194 202 237 277 284 80 102 92 95 23 61 61 32 67 336 274 17 20 34 26 39 47 45 46 46 49 48 48 47 47 45 41 40 35 30 26 23 21 17 5 348 332 318 307 300 299 295 292 293 291 290 287 283 277 271 271 268 263 259 258 261 263 265 263 264 265 267 267 264 265 266 265 266 266 263 260 257 255 252 248 249
24 86 114 79 92 117 82 71 98 89 212 169 151 239 234 216 187 170 186 282 309 63 81 82 107 113 83 66 64 58 352 20 25 20 40 42 50 54 50 50 49 50 48 48 47 46 43 40 39 35 33 29 25 23 20 16 9 360 345 325 309 303 295 293 293 290 290 288 283 280 276 276 273 268 261 262 265 265 267 264 265 267 269 269 263 261 262 261 262 264 264 261 255 251 249 246 246
13 74 65 52 23 53 87 112 138 139 221 160 167 202 218 218 172 142 150 212 54 48 61 88 115 101 72 113 81 38 34 51 51 47 61 57 55 54 52 52 53 53 51 50 48 47 44 41 39 36 33 30 28 25 22 18 14 11 6 355 341 326 309 301 298 292 289 286 284 280 277 276 276 274 268 270 272 267 267 267 270 271 273 274 268 264 262 260 260 262 263 262 260 256 252 246 245
19 87 62 84 29 29 95 114 154 171 138 159 197 196 208 192 153 128 147 168 104 54 65 118 111 88 37 75 89 27 39 52 60 65 65 61 57 54 52 52 54 53 52 52 50 49 47 44 41 39 36 33 32 29 25 20 16 12 8 4 359 350 338 325 317 308 297 292 289 285 279 276 276 275 274 277 278 273 268 267 269 271 274 276 272 268 266 263 260 261 262 262 262 261 257 251 250
70 66 47 88 68 45 76 56 96 178 228 290 249 226 220 151 122 105 112 67 90 70 65 160 106 95 111 75 89 20 27 43 61 67 64 61 58 56 53 52 53 52 51 51 50 49 47 45 43 42 40 39 37 34 30 26 20 14 9 5 1 355 350 344 339 331 320 307 297 292 284 279 279 276 277 279 279 276 271 268 268 271 275 275 273 269 266 265 263 261 261 261 260 262 261 256 254
44 33 85 89 75 60 46 59 90 163 242 256 253 267 262 106 82 72 98 93 86 82 67 86 78 109 132 86 90 26 16 39 62 64 62 61 59 58 56 53 52 51 50 48 47 47 46 44 43 43 43 42 40 38 34 31 26 20 14 8 2 357 351 346 343 340 336 326 315 307 296 289 286 279 278 279 277 274 272 273 272 274 275 274 274 272 269 267 265 263 261 259 259 260 261 259 257
31 348 89 80 62 79 110 164 145 175 264 310 318 304 275 125 89 58 75 96 78 107 115 61 81 121 111 79 66 25 30 48 56 57 59 62 62 60 58 54 51 50 48 46 45 45 43 41 40 41 41 40 38 37 35 32 29 25 20 15 8 2 357 351 345 340 337 333 327 321 313 305 297 289 285 281 274 270 271 274 276 276 276 275 275 274 272 269 267 266 263 260 258 259 260 259 259
61 337 59 88 116 147 151 153 170 213 295 355 347 310 357 87 91 93 82 86 36 90 97 22 137 142 85 89 226 12 30 43 49 57 64 66 64 61 59 55 50 48 45 43 42 41 40 37 36 36 36 35 34 33 32 31 28 25 22 17 13 8 3 359 353 346 339 333 328 325 322 317 310 305 298 290 280 272 269 272 275 276 277 277 277 275 272 271 271 270 267 264 260 258 259 259 258
96 111 74 96 165 145 120 135 186 258 336 2 198 290 46 62 86 146 101 64 15 58 15 328 159 118 82 130 95 1 16 33 55 66 69 68 66 64 60 55 50 46 43 40 37 35 35 34 32 30 29 29 29 28 28 27 24 22 20 16 14 11 7 3 359 353 348 341 333 326 323 320 318 315 310 303 293 281 275 274 275 276 276 275 275 275 273 271 271 271 269 267 264 259 257 258 257
111 149 100 100 83 117 130 123 176 105 21 302 254 284 358 62 106 134 100 67 20 37 350 343 97 101 100 135 34 321 352 34 65 71 72 70 67 65 61 56 50 45 41 38 35 32 31 30 29 25 22 21 21 21 20 20 18 17 15 13 12 10 7 3 360 356 352 348 341 333 327 323 320 318 315 311 305 294 285 281 276 274 274 272 272 272 272 271 268 266 267 266 264 262 259 258 257
116 129 89 94 22 52 120 114 152 122 124 297 302 277 67 63 104 100 89 105 41 316 311 17 19 110 130 137 156 236 9 53 70 74 77 72 66 63 57 53 49 45 40 35 33 31 29 26 25 23 18 15 15 13 12 11 11 9 7 7 6 5 4 2 360 357 353 351 348 343 336 329 323 319 316 314 312 305 295 289 278 272 272 272 272 271 269 268 266 264 264 263 261 261 261 260 259
112 105 65 79 43 52 90 92 105 92 169 262 298 279 83 43 34 74 5 112 92 348 37 21 2 93 109 122 147 162 86 67 71 75 73 65 59 54 48 46 44 42 39 33 30 28 27 24 21 20 17 13 11 9 7 6 4 2 1 0 360 360 358 357 357 357 354 352 350 346 342 337 332 327 321 317 315 312 307 299 288 279 274 269 268 269 269 266 264 264 262 260 258 259 261 260 261
61 76 65 63 62 90 148 151 153 138 220 268 318 329 108 69 39 93 29 57 88 44 56 47 29 68 83 112 130 124 87 70 69 68 60 52 46 42 38 35 35 34 34 31 28 25 23 21 18 17 15 12 9 7 5 2 1 359 359 358 358 358 356 353 351 352 353 352 350 346 343 341 339 335 330 324 319 317 314 311 302 292 281 270 267 266 267 265 262 261 261 258 256 257 259 259 260
54 76 73 49 204 106 166 175 179 152 166 250 300 323 128 129 141 142 63 53 76 74 64 63 64 65 86 112 121 102 80 69 65 62 55 46 40 36 31 28 28 27 27 27 25 22 20 18 15 13 12 10 7 6 5 2 1 360 0 360 359 359 358 356 352 350 350 349 348 346 345 343 340 337 334 330 325 321 316 312 310 305 290 273 268 268 264 262 261 259 259 256 256 256 258 258 259
77 102 62 250 203 151 209 173 164 153 156 206 276 232 119 128 159 137 99 93 89 89 74 65 81 74 86 103 101 84 74 67 63 63 59 51 45 39 32 28 28 25 23 23 21 21 18 15 12 11 10 6 3 4 3 2 2 2 2 1 360 359 358 358 356 352 349 346 345 347 346 344 342 339 336 333 330 327 322 316 313 312 303 283 270 268 264 260 263 261 256 255 257 257 257 257 258
99 97 51 253 210 197 280 181 169 182 157 157 225 197 72 38 140 101 119 129 90 125 146 129 121 131 116 88 80 77 72 68 65 66 64 60 55 47 41 33 28 25 22 20 19 21 18 15 12 9 8 5 3 3 2 3 4 4 3 1 359 358 357 357 357 353 348 345 345 346 344 342 341 339 337 335 334 332 329 324 319 317 314 303 283 271 265 261 263 263 257 255 256 256 256 255 255
98 114 168 233 200 152 257 195 176 172 145 148 177 111 86 69 61 114 136 117 358 209 196 176 161 156 141 114 85 81 77 73 67 68 66 64 60 52 48 39 32 27 23 21 18 18 18 15 10 6 7 7 6 5 4 4 4 4 2 0 358 357 356 356 356 352 348 345 345 343 341 340 338 338 337 336 336 334 332 329 326 323 318 313 301 284 273 264 261 262 259 257 255 254 255 255 255
65 262 205 207 169 134 207 197 186 162 116 112 127 112 126 101 52 115 152 148 213 211 197 169 155 150 143 134 112 92 85 80 72 69 64 60 55 49 46 37 31 26 24 23 17 16 17 14 10 10 10 10 9 7 6 5 4 3 1 358 356 355 354 353 352 350 348 346 343 340 338 338 337 337 337 334 332 331 331 329 327 325 321 317 310 299 286 273 264 261 259 258 256 253 253 254 256
354 295 282 220 177 139 196 195 210 168 109 96 140 137 93 85 68 87 141 171 186 152 146 147 141 146 137 127 118 103 96 94 86 80 69 61 52 44 40 32 26 22 24 22 18 18 16 13 14 15 13 12 12 9 8 7 4 2 359 357 355 353 352 349 348 346 346 344 341 337 335 335 335 335 334 332 330 328 326 326 324 323 322 320 316 309 298 286 274 265 258 257 258 254 252 254 255
133 263 306 270 191 164 188 182 193 144 110 108 125 121 136 144 152 97 99 134 122 114 129 136 138 141 131 118 117 115 115 113 109 101 84 67 53 46 38 30 25 20 19 17 17 19 14 14 17 18 16 14 13 11 10 8 5 2 359 356 354 352 350 347 344 342 341 340 337 335 333 331 331 330 330 329 329 327 323 322 321 321 321 320 319 316 308 297 285 275 265 257 256 254 252 252 252
133 229 287 301 251 212 179 162 159 126 117 110 78 80 207 174 149 113 134 143 119 126 132 137 140 136 127 120 121 122 121 123 125 120 99 68 46 39 32 26 21 19 16 15 17 17 14 16 21 20 16 14 13 11 10 9 6 3 360 356 354 351 348 345 343 341 338 336 334 332 331 329 327 325 325 325 325 324 323 321 320 319 318 319 318 317 315 309 297 284 275 264 256 253 251 250 249
222 225 286 317 303 305 301 180 162 138 144 120 78 17 330 130 83 94 172 163 138 137 138 149 139 130 130 127 134 134 128 129 124 110 81 44 23 20 25 28 23 22 20 20 19 17 18 21 22 18 14 12 10 8 8 7 4 1 359 355 353 351 348 345 342 340 337 335 332 330 329 326 323 322 321 320 320 320 320 320 319 318 316 318 319 317 317 315 308 298 288 272 257 250 249 247 246
244 268 284 281 289 299 282 228 198 137 104 109 114 319 217 155 15 229 202 168 151 141 141 161 137 133 141 139 147 136 129 124 107 86 51 24 16 14 24 32 29 28 26 22 19 18 21 21 18 14 11 9 7 6 5 4 2 359 355 352 350 349 347 345 342 339 336 334 331 330 328 324 321 319 318 316 316 316 316 316 316 316 316 316 318 318 318 317 314 310 301 283 264 254 249 244 242
272 316 307 297 316 313 259 193 227 147 109 114 112 87 181 300 321 224 186 153 160 149 142 161 140 143 151 149 154 144 137 114 91 75 43 16 18 21 29 35 32 32 28 21 19 19 19 17 15 12 9 8 6 5 4 2 360 356 353 350 347 344 343 342 340 338 335 332 330 328 326 324 320 317 316 314 313 313 312 311 311 313 313 313 314 317 319 318 315 312 308 300 284 264 249 241 238
265 17 325 305 347 336 299 154 217 163 165 161 119 62 299 226 253 194 139 141 158 147 147 163 150 156 157 152 160 162 146 111 92 75 63 31 36 39 40 42 37 33 28 22 20 19 17 13 12 10 8 8 6 5 3 1 358 355 352 349 346 343 341 340 338 337 334 331 328 327 324 322 320 317 314 313 311 310 309 307 306 307 308 308 310 313 317 319 318 314 310 310 302 277 251 240 236
279 38 46 314 360 333 305 49 183 161 170 171 142 273 257 231 235 134 125 144 146 147 165 178 166 168 164 160 162 167 164 143 129 91 89 64 53 50 47 47 41 34 28 24 21 19 16 12 11 9 8 7 6 5 2 359 357 354 352 349 346 343 341 339 337 336 333 330 327 325 323 321 319 317 314 312 310 308 306 304 303 302 304 305 305 309 313 317 318 316 313 311 308 293 262 242 232
344 19 50 1 5 284 296 13 145 177 236 126 128 241 251 249 245 158 148 154 152 163 182 189 184 181 178 177 168 175 198 182 157 104 96 74 60 53 50 48 41 35 28 25 23 19 16 14 13 9 8 8 8 5 1 358 355 353 351 349 346 342 339 336 335 334 332 329 326 323 322 320 319 317 314 312 309 307 304 301 300 299 300 301 301 304 308 313 316 315 313 310 308 305 278 245 230
38 4 325 332 197 269 306 308 166 188 265 98 129 243 265 261 239 165 154 166 166 173 188 195 195 190 185 187 182 190 210 192 169 133 96 75 64 54 51 48 40 36 29 25 22 21 20 18 14 9 10 10 7 4 359 357 355 353 351 347 344 340 337 335 333 332 330 327 325 322 321 319 318 316 315 313 309 305 302 299 297 298 297 297 297 299 303 308 313 313 311 309 306 308 297 265 237
2 47 282 278 233 286 315 314 207 184 222 255 182 234 273 268 218 162 154 176 180 179 191 199 200 194 185 188 193 197 200 184 179 174 110 84 72 58 52 46 41 36 29 26 24 24 22 17 12 11 12 10 6 3 360 358 356 353 350 347 344 340 337 334 331 329 327 325 323 321 319 318 317 315 314 312 308 304 301 298 296 296 296 294 292 294 298 302 308 310 308 308 305 303 306 294 259
326 4 299 263 253 271 296 305 305 136 174 247 212 224 253 259 198 172 168 175 186 191 194 200 200 196 192 192 197 201 193 181 195 200 156 97 74 59 48 44 41 34 29 29 29 26 21 15 12 12 12 9 6 4 1 359 355 352 349 346 343 340 336 332 330 328 325 324 321 320 319 317 316 315 313 311 308 304 300 297 295 295 293 291 289 290 293 298 303 307 305 305 305 302 300 301 287
257 285 293 292 278 253 253 270 290 49 230 243 217 242 255 256 211 188 182 178 192 201 197 200 201 196 199 197 198 202 197 199 208 203 180 96 64 50 38 38 35 32 32 32 30 23 18 15 12 12 11 8 6 4 1 357 354 351 349 346 344 339 334 330 329 326 325 324 321 319 319 318 317 317 316 314 310 305 301 297 295 294 292 288 286 286 288 294 299 302 303 301 302 303 298 296 299
212 239 231 262 278 269 259 248 261 252 245 248 230 240 253 250 221 198 188 182 194 205 200 204 205 201 203 201 202 200 200 211 207 202 186 76 54 39 30 30 30 33 35 31 27 21 18 15 11 11 10 7 5 4 1 357 353 351 349 346 342 337 332 328 327 326 324 323 321 319 318 318 317 316 316 315 311 307 303 299 296 293 291 286 282 282 283 288 295 298 300 300 299 302 302 296 297
180 187 216 241 243 270 276 265 276 229 199 256 238 233 252 250 229 207 186 180 196 204 204 207 204 204 204 201 201 199 207 214 205 207 200 59 48 35 27 27 29 32 35 30 25 21 18 14 11 11 9 6 5 4 359 356 354 350 346 342 336 333 331 329 327 326 324 322 321 320 318 317 316 315 315 314 311 309 304 299 296 292 289 285 280 279 280 282 288 294 297 297 295 296 300 298 296
169 181 238 275 237 255 276 271 286 60 172 268 256 234 254 254 241 211 171 180 203 203 202 204 199 203 206 198 199 200 210 220 213 221 225 49 38 30 26 27 29 29 31 28 22 19 14 11 10 9 6 4 4 2 358 355 353 347 341 337 333 331 330 328 325 324 323 322 321 320 318 316 315 315 314 313 310 309 306 301 295 291 287 283 279 277 277 278 281 289 294 293 291 289 290 294 293
175 158 216 291 257 266 292 297 326 15 198 277 278 252 254 260 255 221 184 194 209 206 204 202 194 197 201 196 197 197 206 223 222 224 218 41 31 27 24 28 32 29 28 23 17 15 11 8 8 5 3 1 359 358 357 352 348 344 339 335 333 330 328 327 323 323 323 322 321 320 319 318 317 316 314 312 310 307 305 302 296 291 286 280 278 276 275 275 277 283 289 289 289 286 283 286 287
198 172 184 272 275 288 288 308 338 319 253 260 275 268 253 257 258 238 197 201 211 208 208 206 199 198 197 197 195 190 198 211 215 220 242 24 28 23 21 24 30 28 22 15 12 11 7 4 2 359 358 356 354 354 353 349 344 342 340 336 335 332 329 328 326 325 324 322 321 320 319 317 315 313 311 309 307 304 301 299 295 289 285 281 277 275 273 273 274 279 284 286 285 283 282 282 282
260 210 202 250 271 250 245 289 336 317 289 276 294 288 254 228 244 248 203 204 216 197 198 209 215 211 204 203 200 197 199 199 194 201 231 12 18 8 15 21 23 20 11 7 8 5 1 358 355 353 352 350 350 351 348 346 344 343 341 338 337 335 331 331 329 326 325 322 320 318 316 314 312 310 309 306 303 301 298 296 293 287 284 282 278 274 272 271 273 277 280 283 280 276 276 279 281
294 242 214 231 252 255 265 329 357 334 306 321 11 313 273 234 247 248 159 204 220 195 199 210 210 210 210 206 200 205 209 203 190 174 172 219 329 351 10 20 15 8 2 1 1 356 351 349 348 346 346 345 346 346 345 344 345 344 342 339 336 333 329 326 324 322 320 319 318 317 315 314 313 311 309 307 303 301 300 299 294 287 284 283 279 275 271 270 273 276 276 278 279 273 269 271 275
286 255 206 212 229 246 269 327 352 273 263 297 60 281 274 281 248 243 189 204 223 204 211 214 204 204 207 202 196 201 202 196 187 169 179 207 325 347 357 7 3 354 354 354 349 345 342 340 342 341 339 341 341 343 344 343 343 342 339 334 329 326 321 317 317 317 315 315 315 314 314 313 313 311 310 309 307 305 304 305 300 291 288 285 281 276 272 270 271 273 272 274 276 270 263 260 266
239 245 131 141 199 233 249 270 267 245 271 295 216 170 273 273 248 247 183 199 230 221 220 219 206 209 207 201 201 199 192 179 169 176 195 209 349 338 335 344 349 347 346 345 341 338 337 336 337 336 334 336 338 340 341 341 341 338 334 328 322 318 314 312 313 315 314 314 313 312 312 311 311 310 308 306 306 304 302 305 305 302 299 295 288 279 273 272 269 268 270 273 271 262 255 258 265
245 215 142 139 198 219 225 211 254 283 10 291 243 148 260 269 249 342 123 205 241 232 222 216 207 209 205 200 206 202 189 179 171 175 189 202 294 329 327 330 336 339 337 337 336 333 334 335 333 331 330 333 336 337 338 339 338 335 330 324 318 315 313 310 311 312 313 314 313 312 311 310 310 308 304 302 302 301 297 298 302 305 307 307 302 292 280 272 265 265 268 267 261 254 254 259 262
228 156 123 4 42 203 207 218 257 31 7 268 246 155 222 269 225 96 71 227 242 236 223 212 209 211 203 198 204 198 183 180 184 180 182 195 238 334 337 329 327 328 330 332 331 329 332 332 329 327 328 331 333 335 336 337 337 333 327 321 317 314 313 311 311 310 311 313 312 311 310 309 308 306 304 302 300 298 296 297 298 299 302 306 308 305 293 277 265 264 265 257 252 252 256 257 257
111 80 20 355 359 23 45 48 75 62 266 259 230 176 197 271 242 172 195 218 221 222 212 198 207 211 201 198 198 186 177 178 184 188 199 217 302 355 345 331 323 322 325 325 324 326 329 327 325 324 328 331 332 333 334 334 334 329 323 319 314 312 311 310 310 309 310 312 312 311 309 307 306 305 305 303 299 296 295 297 299 299 300 302 305 306 304 293 277 266 257 248 249 252 253 253 253
90 69 32 349 325 4 23 355 50 82 260 261 225 183 197 242 248 207 227 241 224 207 193 194 204 203 195 194 190 180 180 180 176 191 217 259 345 348 338 328 322 316 314 315 317 321 324 324 325 325 329 332 331 332 332 331 330 326 321 316 311 309 307 306 305 306 309 310 310 309 308 306 305 306 305 302 299 296 295 297 300 300 300 301 302 303 304 302 291 273 254 244 247 249 248 246 247
77 76 60 12 325 355 345 300 242 218 250 247 122 146 220 242 250 244 242 251 248 216 203 203 199 190 186 186 182 179 180 183 180 194 219 237 289 314 323 320 312 302 302 308 312 316 321 325 328 327 329 331 331 330 330 329 327 324 319 314 310 307 303 302 302 303 307 309 308 306 304 304 304 305 305 302 298 296 297 298 298 297 298 298 300 302 302 302 297 282 263 250 244 243 243 243 242
134 137 126 147 329 332 293 275 276 276 271 251 116 111 268 266 263 252 249 263 263 226 215 210 187 177 180 175 170 179 183 192 193 191 213 223 240 290 310 302 293 290 297 303 305 312 321 327 330 328 327 330 330 328 328 327 325 322 319 313 308 305 301 301 301 301 306 309 308 304 299 298 299 300 300 300 299 296 294 294 295 296 296 295 298 301 301 301 299 287 270 254 243 241 242 243 244
175 154 135 162 169 227 269 262 270 292 296 268 160 160 238 243 258 262 267 295 308 261 191 151 149 159 163 155 160 180 190 197 201 199 217 229 250 290 292 284 282 286 293 297 301 314 324 328 331 328 327 329 329 329 327 326 324 321 317 312 307 304 301 301 302 301 303 308 308 303 296 294 294 295 296 296 296 295 293 292 294 295 292 294 299 300 299 301 301 293 275 258 244 240 243 245 247
222 125 117 187 183 189 246 250 234 292 310 277 214 211 227 211 211 311 321 337 15 30 95 123 137 148 145 156 172 184 194 196 199 209 230 250 268 277 274 275 280 285 290 294 306 321 328 330 331 328 328 329 329 329 327 324 322 319 315 311 307 303 301 301 301 300 303 306 305 300 295 293 292 292 293 294 293 292 292 291 292 291 289 294 299 298 297 299 302 300 284 265 248 239 244 247 250
168 124 183 217 162 149 229 282 308 66 287 272 235 255 274 276 256 338 45 37 47 56 132 141 148 155 155 173 183 188 199 199 200 205 224 252 263 268 270 275 283 289 294 301 315 328 330 329 329 328 328 329 328 327 325 323 321 317 314 310 307 304 303 301 300 300 304 306 304 300 296 294 292 291 292 292 291 290 289 289 289 286 287 295 295 293 295 299 302 304 295 275 256 242 243 246 251
137 189 215 183 95 92 114 287 318 319 250 266 254 264 276 272 264 323 43 227 219 196 183 164 165 174 177 187 189 195 200 197 204 215 230 245 253 261 269 283 294 300 303 309 321 329 330 329 330 328 327 327 326 324 322 320 318 316 313 311 309 306 303 301 300 301 303 303 302 300 298 294 292 291 291 292 291 289 288 287 286 286 287 291 289 289 295 298 301 304 303 289 268 251 245 246 250
131 214 228 117 145 242 123 155 267 264 260 272 264 269 270 243 224 249 212 213 212 200 193 194 193 190 188 188 191 199 197 190 201 221 241 243 246 256 273 296 308 311 311 316 324 328 330 332 331 329 326 323 323 321 319 318 316 314 312 310 309 306 303 301 301 302 302 299 298 299 298 295 294 293 291 291 290 288 288 286 286 288 288 286 284 286 291 295 299 301 302 297 281 263 251 247 249
46 289 320 34 184 206 196 165 206 243 266 278 280 285 273 234 186 207 213 206 198 187 191 206 204 193 188 184 186 193 189 189 202 215 233 235 245 267 296 311 312 316 316 319 325 327 329 331 330 328 324 321 320 319 318 317 316 315 312 310 308 305 303 302 301 301 300 296 294 295 298 297 295 295 292 290 288 286 286 285 284 285 285 284 285 288 291 291 295 298 296 296 291 277 261 250 252
150 181 226 245 204 204 263 223 161 210 258 272 276 276 270 233 162 205 213 206 196 184 192 207 200 186 189 186 182 186 183 190 205 215 228 239 263 294 311 311 310 314 315 318 324 326 328 329 328 325 321 319 319 318 317 316 315 315 312 310 309 306 304 303 302 300 298 296 293 293 296 296 295 295 293 290 287 285 285 284 282 282 282 284 288 291 293 290 290 292 292 293 293 287 271 257 257
179 185 196 205 203 189 262 257 205 191 242 239 256 276 270 222 159 206 205 203 197 186 194 201 186 182 190 188 184 182 184 192 206 219 232 254 281 296 299 303 308 309 312 319 324 326 326 326 325 323 320 318 318 318 317 315 314 313 311 310 309 307 305 303 302 299 298 299 296 293 296 295 293 294 293 290 288 284 283 282 281 280 280 283 287 288 288 287 285 286 288 291 292 289 278 262 258